Ostrava, Czech Republic

1:46 AM CET on December 05, 2016 (GMT +0100)
Mosnov

Weather History for LKMT - November, 2013

Change the Weather History Date:

Thursday, November 21, 2013

  Actual Average Record
Temperature  
Mean Temperature 42 °F -  
Max Temperature 45 °F - - ()
Min Temperature 39 °F - - ()
Degree Days  
Heating Degree Days 23    
Moisture  
Dew Point 41 °F    
Average Humidity 93    
Maximum Humidity 100    
Minimum Humidity 86    
Precipitation  
Precipitation 0.00 in - - ()
Sea Level Pressure  
Sea Level Pressure 29.62 in    
Wind  
Wind Speed 5 mph ()    
Max Wind Speed 9 mph    
Max Gust Speed -    
Visibility 4.2 miles    
Events Fog , Rain    
T = Trace of Precipitation, MM = Missing Value Source: Averaged Metar Reports

Daily Weather History Graph

Daily Weather History Graph

Search for Another Location

Airport or City:

Trip Planner

Search our weather history database for the weather conditions in past years. The results will help you decide how hot, cold, wet, or windy it might be!

Date:

Astronomy

Nov. 21, 2013 Rise Set
Actual Time 7:08 AM CET 3:57 PM CET
Civil Twilight 6:32 AM CET 4:33 PM CET
Nautical Twilight 5:53 AM CET 5:13 PM CET
Astronomical Twilight 5:14 AM CET 5:51 PM CET
Moon 7:20 PM CET (11/21) 10:02 AM CET (11/21)
Length of Visible Light 10h 00m
Length of Day
8h 48m
Waning Gibbous, 87% of the Moon is Illuminated
Nov 21
Waning Gibbous
Nov 25
Last Quarter
Dec 3
New
Dec 9
First Quarter
Dec 17
Full

Hourly Weather History & Observations

Time (CET) Temp. Windchill Dew Point Humidity Pressure Visibility Wind Dir Wind Speed Gust Speed Precip Events Conditions
12:00 AM 41.0 °F 38.0 °F 39.2 °F 93% 29.62 in 6.2 mi SW 4.6 mph - N/A   Overcast
12:30 AM 41.0 °F 36.4 °F 41.0 °F 100% 29.62 in 6.2 mi SW 6.9 mph - N/A   Overcast
1:00 AM 42 °F - 40 °F 88% 29.65 in 9 mi SW 8.9 mph - -   Partly Cloudy
1:00 AM 41.0 °F 35.8 °F 39.2 °F 93% 29.62 in 6.2 mi SW 8.1 mph - N/A   Overcast
1:30 AM 42.8 °F 38.6 °F 39.2 °F 87% 29.62 in 6.2 mi SSW 6.9 mph - N/A   Overcast
2:00 AM 41.0 °F 36.4 °F 39.2 °F 93% 29.62 in 6.2 mi SSW 6.9 mph - N/A   Overcast
2:30 AM 41.0 °F 38.0 °F 39.2 °F 93% 29.62 in 6.2 mi SSW 4.6 mph - N/A   Overcast
3:00 AM 41.0 °F 37.1 °F 39.2 °F 93% 29.62 in 6.2 mi SSW 5.8 mph - N/A   Overcast
3:30 AM 41.0 °F 37.1 °F 39.2 °F 93% 29.62 in 6.2 mi SW 5.8 mph - N/A   Overcast
4:00 AM 41.0 °F 39.0 °F 39.2 °F 93% 29.62 in 6.2 mi WSW 3.5 mph - N/A   Overcast
4:30 AM 41.0 °F 39.0 °F 39.2 °F 93% 29.62 in 6.2 mi SW 3.5 mph - N/A   Overcast
5:00 AM 41.0 °F - 39.2 °F 93% 29.62 in 6.2 mi WSW 2.3 mph - N/A   Overcast
5:30 AM 41.0 °F - 39.2 °F 93% 29.62 in 6.2 mi Variable 2.3 mph - N/A   Overcast
6:00 AM 41.0 °F - 39.2 °F 93% 29.62 in 6.2 mi NNE 2.3 mph - N/A   Overcast
6:30 AM 41.0 °F - 39.2 °F 93% 29.62 in 6.2 mi Variable 2.3 mph - N/A   Overcast
7:00 AM 40 °F - 38 °F 91% 29.68 in 7 mi North 2.2 mph - -   Partly Cloudy
7:00 AM 39.2 °F - 39.2 °F 100% 29.62 in 6.2 mi Variable 2.3 mph - N/A   Mostly Cloudy
7:30 AM 41.0 °F 39.0 °F 39.2 °F 93% 29.65 in 6.2 mi East 3.5 mph - N/A   Mostly Cloudy
8:00 AM 39.2 °F - 39.2 °F 100% 29.65 in 6.2 mi Variable 2.3 mph - N/A   Mostly Cloudy
8:30 AM 41.0 °F - 39.2 °F 93% 29.65 in 6.2 mi Variable 2.3 mph - N/A   Mostly Cloudy
9:00 AM 41.0 °F - 39.2 °F 93% 29.65 in 6.2 mi Calm Calm - N/A   Partly Cloudy
9:30 AM 41.0 °F - 39.2 °F 93% 29.65 in 6.2 mi Calm Calm - N/A   Mostly Cloudy
10:00 AM 41.0 °F 39.0 °F 41.0 °F 100% 29.62 in 6.2 mi North 3.5 mph - N/A   Mostly Cloudy
10:30 AM 42.8 °F 39.3 °F 41.0 °F 93% 29.62 in 6.2 mi NNE 5.8 mph - N/A   Partly Cloudy
11:00 AM 42.8 °F 39.3 °F 41.0 °F 93% 29.62 in 5.0 mi NNE 5.8 mph - N/A   Mostly Cloudy
11:30 AM 44.6 °F 41.4 °F 41.0 °F 87% 29.62 in 4.3 mi North 5.8 mph - N/A   Mostly Cloudy
12:00 PM 44.6 °F 41.4 °F 41.0 °F 87% 29.62 in 5.0 mi North 5.8 mph - N/A   Mostly Cloudy
12:30 PM 44.6 °F 41.4 °F 41.0 °F 87% 29.62 in 3.7 mi North 5.8 mph - N/A   Mostly Cloudy
1:00 PM 45 °F - 42 °F 86% 29.64 in 3 mi NNE 8.9 mph - -   Mist
1:00 PM 44.6 °F 40.2 °F 42.8 °F 93% 29.59 in 2.8 mi NNE 8.1 mph - N/A   Scattered Clouds
1:30 PM 44.6 °F 40.7 °F 42.8 °F 93% 29.59 in 2.2 mi NNE 6.9 mph - N/A   Partly Cloudy
2:00 PM 44.6 °F 41.4 °F 41.0 °F 87% 29.59 in 2.2 mi North 5.8 mph - N/A   Mist
2:30 PM 44.6 °F 40.7 °F 42.8 °F 93% 29.59 in 2.5 mi NNE 6.9 mph - N/A   Mist
3:00 PM 46.4 °F 43.5 °F 42.8 °F 87% 29.59 in 3.1 mi NNE 5.8 mph - N/A Rain Light Rain
3:30 PM 44.6 °F 41.4 °F 42.8 °F 93% 29.59 in 3.1 mi North 5.8 mph - N/A Rain Light Rain
4:00 PM 44.6 °F 41.4 °F 42.8 °F 93% 29.59 in 3.1 mi North 5.8 mph - N/A   Mist
4:30 PM 42.8 °F 40.1 °F 41.0 °F 93% 29.59 in 3.1 mi North 4.6 mph - N/A   Mist
5:00 PM 42.8 °F 39.3 °F 41.0 °F 93% 29.59 in 3.1 mi North 5.8 mph - N/A   Mist
5:30 PM 42.8 °F 40.1 °F 41.0 °F 93% 29.59 in 3.1 mi NNE 4.6 mph - N/A   Mostly Cloudy
6:00 PM 42.8 °F 39.3 °F 41.0 °F 93% 29.59 in 3.1 mi North 5.8 mph - N/A   Scattered Clouds
6:30 PM 42.8 °F 38.6 °F 41.0 °F 93% 29.59 in 3.1 mi North 6.9 mph - N/A   Mist
7:00 PM 43 °F - 41 °F 91% 29.63 in 3 mi North 6.7 mph - -   Mist
7:00 PM 42.8 °F 39.3 °F 41.0 °F 93% 29.59 in 3.1 mi North 5.8 mph - N/A   Mist
7:30 PM 42.8 °F 39.3 °F 41.0 °F 93% 29.59 in 3.1 mi North 5.8 mph - N/A   Mist
7:38 PM 42.8 °F 39.3 °F 41.0 °F 93% 29.59 in 2.5 mi North 5.8 mph - N/A   Mist
8:00 PM 42.8 °F 39.3 °F 42.8 °F 100% 29.59 in 2.5 mi NNE 5.8 mph - N/A   Mist
8:30 PM 42.8 °F 40.1 °F 42.8 °F 100% 29.59 in 2.2 mi WNW 4.6 mph - N/A Rain Light Rain
9:00 PM 42.8 °F - 41.0 °F 93% 29.62 in 1.9 mi Variable 1.2 mph - N/A Rain Rain
9:22 PM 42.8 °F 41.1 °F 41.0 °F 93% 29.62 in 1.6 mi WNW 3.5 mph - N/A Rain Rain
9:30 PM 42.8 °F 41.1 °F 41.0 °F 93% 29.62 in 1.6 mi WNW 3.5 mph - N/A Rain Rain
10:00 PM 42.8 °F - 42.8 °F 100% 29.62 in 1.6 mi Variable 1.2 mph - N/A Rain Light Rain
10:30 PM 42.8 °F 40.1 °F 42.8 °F 100% 29.62 in 1.4 mi North 4.6 mph - N/A Rain Light Rain
11:00 PM 42.8 °F 41.1 °F 41.0 °F 93% 29.62 in 1.0 mi NE 3.5 mph - N/A Rain Light Rain
11:01 PM 42.8 °F 41.1 °F 41.0 °F 93% 29.62 in 0.7 mi NE 3.5 mph - N/A   Overcast
11:09 PM 42.8 °F 41.1 °F 41.0 °F 93% 29.62 in 0.7 mi NE 3.5 mph - N/A   Overcast
11:30 PM 42.8 °F 41.1 °F 41.0 °F 93% 29.62 in 0.6 mi NE 3.5 mph - N/A Fog Fog